Regional Weather Roundup
Issued by NWS

Home | Current Version | Previous Version | Text Only | Print | Product List | Glossary On
Versions: 1 2 3 4 5 6 7 8 9 10 11 12 13 14 15 16 17 18 19 20 21 22 23 24 25 26 27 28 29 30 31 32 33 34 35 36 37 38 39 40 41 42 43 44 45 46 47 48 49 50
587
ASUS42 KFFC 182110
RWRGA
WEATHER ROUNDUP FOR GEORGIA
NATIONAL WEATHER SERVICE PEACHTREE CITY GA
500 PM EDT WED OCT 18 2017

NOTE: "FAIR" INDICATES FEW OR NO CLOUDS BELOW 12,000 FEET WITH NO
SIGNIFICANT WEATHER AND/OR OBSTRUCTIONS TO VISIBILITY.

* = USE WITH CAUTION. THE STATIONS MARKED WITH AN ASTERISK MAY NOT
REPORT WEATHER SUCH AS PRECIPITATION, FOG, OR THUNDER AND ARE NOT
QUALITY CONTROLLED BY NWS.

THE REMARK "TC" DENOTES TEMPERATURE READING IN DEGREES CELSIUS.

GAZ001>058-182200-
NORTH GEORGIA

CITY           SKY/WX    TMP DP  RH WIND       PRES   REMARKS
ATLANTA        SUNNY     70  40  33 E9        30.26F
ATHENS         SUNNY     70  42  36 NE8       30.27F
CHAMBLEE       SUNNY     70  40  33 VRB5      30.26F
PEACHTREE CITY SUNNY     71  43  36 NE6       30.26F
ROME           SUNNY     72  46  39 SE7       30.25F
WEST ATLANTA   SUNNY     71  41  33 E7        30.25F
GAINESVILLE    SUNNY     68  43  40 NE8       30.30S
CARTERSVILLE   SUNNY     71  44  37 VRB3      30.26F


CITY           SKY/WX    TMP DP  RH WIND       PRES   REMARKS
DALTON*        SUNNY     70  45  40 CALM      30.27F
LAWRENCEVILLE* SUNNY     69  41  36 NE9       30.29S
MARIETTA       SUNNY     69  42  37 E5        30.26F
KENNESAW*      SUNNY     70  42  36 E8        30.27F
CANTON*        SUNNY     72  45  37 NE3       30.28F
$$

GAZ059>098-102>109-182200-
CENTRAL GEORGIA

CITY           SKY/WX    TMP DP  RH WIND       PRES   REMARKS
AUGUSTA-BUSH   SUNNY     75  37  25 E9        30.25F
AUGUSTA-DANIEL SUNNY     75  37  25 NE10      30.26F
COLUMBUS       SUNNY     75  39  27 E10       30.22F
MACON          SUNNY     74  37  26 E9        30.23F
ROBINS AFB     SUNNY     74  40  29 N5        30.22F


CITY           SKY/WX    TMP DP  RH WIND       PRES   REMARKS
LAGRANGE*      SUNNY     73  44  35 NE6       30.24S
SYLVANIA*      SUNNY     75  56  51 E9        30.24S
MILLEDGEVILLE* SUNNY     73  45  35 NE7       30.26S
$$

GAZ099>101-110>166-182200-
SOUTH GEORGIA

CITY           SKY/WX    TMP DP  RH WIND       PRES   REMARKS
SAVANNAH       MOSUNNY   76  58  53 E9        30.22S
VALDOSTA       CLOUDY    77  60  55 NE8       30.17S
ALMA           SUNNY     78  56  46 VRB3      30.19F
ST SIMONS      CLOUDY    74  66  76 NE15      30.19S
FT STEWART     SUNNY     77  58  51 E9        30.19S
ALBANY         SUNNY     79  53  40 NE9       30.20F
HUNTER AFB     SUNNY     75  60  58 NE9       30.19S
MOODY AFB      CLOUDY    77  59  52 E9        30.17R
BRUNSWICK      CLOUDY    72  61  68 NE12      30.21S


CITY           SKY/WX    TMP DP  RH WIND       PRES   REMARKS
BAINBRIDGE*    SUNNY     81  63  54 NE7       30.17S
MOULTRIE*      MOSUNNY   79  57  47 NE8       30.18S
VIDALIA*       SUNNY     77  50  38 NE7       30.22F
WAYCROSS*      MOSUNNY   79  54  41 E6        30.18S
DOUGLAS*       SUNNY     77  54  44 NE8       30.21S
$$




USA.gov is the U.S. government's official web portal to all federal, state and local government web resources and services.